TimeMDT,TemperatureF,Dew PointF,Humidity,Sea Level PressureIn,VisibilityMPH,Wind Direction,Wind SpeedMPH,Gust SpeedMPH,PrecipitationIn,Events,Conditions,WindDirDegrees,DateUTC
12:24 AM,84.2,57.2,40,30.02,10.0,West,12.7,-,N/A,Thunderstorm,Scattered Clouds,260,2013-06-17 06:24:00
12:44 AM,77.0,57.2,50,30.04,5.0,NW,31.1,47.2,N/A,Thunderstorm,Haze,310,2013-06-17 06:44:00
12:53 AM,75.0,61.0,62,29.86,10.0,NNW,23.0,33.4,N/A,Thunderstorm,Overcast,340,2013-06-17 06:53:00
1:53 AM,73.0,63.0,71,29.78,10.0,ENE,6.9,-,0.00,,Partly Cloudy,70,2013-06-17 07:53:00
2:53 AM,73.0,61.0,66,29.78,10.0,South,3.5,-,N/A,,Clear,190,2013-06-17 08:53:00
3:53 AM,72.0,62.1,71,29.78,10.0,SW,8.1,-,N/A,,Clear,220,2013-06-17 09:53:00
4:53 AM,72.0,59.0,64,29.78,10.0,SW,6.9,-,N/A,,Clear,230,2013-06-17 10:53:00
5:53 AM,71.1,57.0,61,29.80,10.0,West,6.9,-,N/A,,Clear,260,2013-06-17 11:53:00
6:53 AM,73.0,59.0,61,29.81,10.0,Calm,Calm,-,N/A,,Clear,0,2013-06-17 12:53:00
7:53 AM,75.9,61.0,60,29.85,9.0,NE,8.1,-,N/A,,Clear,50,2013-06-17 13:53:00
8:53 AM,79.0,63.0,58,29.85,10.0,NE,5.8,-,N/A,,Clear,40,2013-06-17 14:53:00
9:53 AM,84.9,61.0,44,29.84,10.0,ENE,4.6,-,N/A,,Clear,60,2013-06-17 15:53:00
10:53 AM,88.0,59.0,37,29.84,10.0,Calm,Calm,-,N/A,,Clear,0,2013-06-17 16:53:00
11:53 AM,90.0,61.0,38,29.83,10.0,East,6.9,-,N/A,,Clear,80,2013-06-17 17:53:00
12:53 PM,91.9,63.0,38,29.82,10.0,ENE,10.4,16.1,N/A,,Clear,70,2013-06-17 18:53:00
1:53 PM,93.9,63.0,36,29.78,10.0,East,8.1,-,N/A,,Clear,90,2013-06-17 19:53:00
2:53 PM,91.9,59.0,33,29.78,10.0,East,8.1,-,N/A,,Clear,90,2013-06-17 20:53:00
3:53 PM,91.0,57.9,33,29.79,10.0,NNW,5.8,-,N/A,,Clear,340,2013-06-17 21:53:00
4:10 PM,91.4,59.0,34,30.00,10.0,WNW,18.4,26.5,N/A,Thunderstorm,Scattered Clouds,290,2013-06-17 22:10:00
4:15 PM,84.2,55.4,37,29.99,2.5,West,38.0,51.8,N/A,Thunderstorm,Unknown,280,2013-06-17 22:15:00
4:25 PM,71.6,62.6,73,30.02,1.5,West,35.7,49.5,0.03,Rain-Thunderstorm,Heavy Thunderstorms and Rain,260,2013-06-17 22:25:00
4:34 PM,71.6,59.0,64,30.02,3.0,WSW,36.8,48.3,0.06,Rain-Thunderstorm,Light Thunderstorms and Rain,250,2013-06-17 22:34:00
4:53 PM,73.0,57.9,59,29.90,8.0,WSW,19.6,29.9,0.08,Rain,Light Rain,250,2013-06-17 22:53:00
5:15 PM,75.2,57.2,53,30.01,10.0,NW,15.0,-,0.01,Rain,Light Rain,320,2013-06-17 23:15:00
5:53 PM,82.9,51.1,33,29.68,10.0,East,13.8,23.0,0.01,,Scattered Clouds,100,2013-06-17 23:53:00
6:53 PM,84.9,52.0,32,29.73,10.0,SSW,20.7,-,N/A,,Clear,200,2013-06-18 00:53:00
7:53 PM,75.9,59.0,56,29.81,10.0,SSE,18.4,33.4,N/A,,Clear,160,2013-06-18 01:53:00
8:53 PM,73.0,59.0,61,29.83,10.0,ESE,4.6,-,N/A,,Clear,110,2013-06-18 02:53:00
9:53 PM,73.0,59.0,61,29.82,10.0,SSE,12.7,-,N/A,,Clear,160,2013-06-18 03:53:00
10:53 PM,72.0,59.0,64,29.81,10.0,South,12.7,-,N/A,,Clear,170,2013-06-18 04:53:00
11:53 PM,72.0,59.0,64,29.87,10.0,East,10.4,-,N/A,,Clear,100,2013-06-18 05:53:00